THOR ABLESTAR DEB, 134

Orbit data source: Space-Track

THOR ABLESTAR DEB, 134 is space debris in LEO originally from a launch on Thu, 29 Jun 1961 UTC launched from the Air Force Eastern Test Range (AFETR). Debris objects in space refer to the collection of defunct objects orbiting the Earth. Examples of debris include non-operational satellites, rocket bodies, and fragments generated from explosions, collisions, or faulty payload assembly.

Loading next visibility...
Identifier
134, 1961-015U
Orbit
LEO
Country
Flag of USUS
Related business
Manufacturer
Unknown
Mission
Spacecraft
Bus & Motor
Unknown
Mass
Unknown
Launch date (UTC)
1961-06-29 (64 years ago)
Launch vehicle
Unknown
Launch site
Air Force Eastern Test Range (AFETR)
Object type
Payload
Rocket body
Debris
Shape & HBR
Unknown shape, 1.1 m
Radar Cross Section
Large (>1 m²)

Expand to show TLE details & history
Last TLE update: 19 hours ago

TLE from 19 hours ago
0 THOR ABLESTAR DEB
1 00134U 61015U   25292.28920104  .00000306  00000-0  26417-3 0  9999
2 00134  66.8789 279.8687 0080767   0.6344 359.4826 13.97658244272036
Epoch: 2025-10-19T06:56Z
TLE epoch observation values (Epoch: 2025-10-19T06:56:26.969Z)
Latitude
-0.00009°
Longitude
147.74829°
Altitude
845.201 km
Speed
7.46 km/s
True Right ascension
18h 39m 28s
True Declination
0° 00' 00"
Sunlit
Object was in daylight at epoch
Visualization orbit readout
Latitude
Unknown
Longitude
Unknown
Altitude
Unknown
Speed
Unknown
Apparent Right ascension
Unknown
Apparent Declination
Unknown
Sunlit
N/A
Visualization observer readout
Local Sidereal Time
20:55:59
Azimuth
Unknown
Elevation
Unknown
Doppler factor
Unknown
Orbital elements
Apogee altitude
959.08 km
Perigee altitude
841.509 km
Semi-major axis
7,278.432 km
Eccentricity
0.00808
Inclination
66.8789°
RAAN
279.8687°
Arg. of periapsis
0.6344°
True anomaly
359.47416°
Mean anomaly
359.4826°
Eccentric anomaly
359.47839°
Mean motion
3.49532 °/min
Orbital period
102.99 mins
BSTAR
0.00026417

Documentation

Showing up to 5 results
|